{"data":{"norad_id":63223,"epoch":"2026-05-25T03:31:29.051328Z","epoch_age_seconds":52621,"freshness":"FRESH","line1":"1 63223U 25052P   26145.14686402  .00005249  00000+0  22646-3 0  9991","line2":"2 63223  97.3962  38.3456 0003124 188.7597 171.3586 15.22958557 66369","mean_motion":15.22958557,"eccentricity":0.0003124,"inclination_deg":97.3962,"raan_deg":38.3456,"arg_perigee_deg":188.7597,"mean_anomaly_deg":171.3586,"bstar":0.00022646,"rev_number":6636,"period_min":94.552802726069,"perigee_km":494.77457231069,"apogee_km":499.07010938685,"semimajor_km":6875.0593408488,"source":"CELESTRAK","updated_at":"2026-05-25T13:38:03.578493Z"}}